PAL223 RPLL-YPPH

Flight info

Callsign PAL223
Flight time N/A
Altitude 36000
Route BUCAL2R BUCAL M646 VJN M522 ELANG/N0474F370 M522 BLI G578 EGATU L514 OSOTO/N0471F390 L514 MUNNI/N0473F380 L514 AVPAL Q38 JULIM
Aircraft A343/H-SDE2E3FGHIJ4J5M1RWXY/LB1D1

Departure

Time N/A
Airport Ninoy Aquino International Airport (RPLL)

Arrival

Time 2026-05-08 07:20
Airport Perth International Airport (YPPH)
Time Latitude Longitude Altitude Speed Heading
2026-05-08 03:31 -4.40311 114.94448 37869 ft 477 kts 177°
2026-05-08 03:32 -4.43625 114.94647 37870 ft 477 kts 177°
2026-05-08 03:32 -4.50218 114.95053 37871 ft 477 kts 177°
2026-05-08 03:33 -4.56865 114.95443 37868 ft 479 kts 177°
2026-05-08 03:33 -4.63527 114.95820 37870 ft 479 kts 178°
2026-05-08 03:34 -4.70182 114.96192 37867 ft 479 kts 177°
2026-05-08 03:34 -4.76807 114.96563 37865 ft 479 kts 177°
2026-05-08 03:35 -4.83457 114.96937 37864 ft 479 kts 177°
2026-05-08 03:36 -4.97139 114.97705 37862 ft 479 kts 177°
2026-05-08 03:36 -5.03802 114.98080 37867 ft 480 kts 177°
2026-05-08 03:37 -5.10433 114.98453 37867 ft 479 kts 177°
2026-05-08 03:37 -5.17109 114.98828 37864 ft 480 kts 178°
2026-05-08 03:38 -5.23729 114.99201 37860 ft 478 kts 178°
2026-05-08 03:38 -5.30373 114.99574 37865 ft 478 kts 177°
2026-05-08 03:39 -5.37018 114.99948 37867 ft 478 kts 178°
2026-05-08 03:39 -5.43665 115.00322 37865 ft 478 kts 178°
2026-05-08 03:40 -5.50307 115.00696 37861 ft 478 kts 177°
2026-05-08 03:40 -5.56946 115.01070 37865 ft 477 kts 178°
2026-05-08 03:41 -5.63581 115.01444 37866 ft 476 kts 177°
2026-05-08 03:41 -5.70197 115.01816 37866 ft 476 kts 178°
2026-05-08 03:42 -5.76772 115.02187 37866 ft 476 kts 178°
2026-05-08 03:42 -5.83394 115.02560 37867 ft 476 kts 178°
2026-05-08 03:43 -5.90019 115.02934 37869 ft 476 kts 179°
2026-05-08 03:43 -5.96630 115.03306 37867 ft 475 kts 178°
2026-05-08 03:44 -6.03236 115.03679 37865 ft 475 kts 179°
2026-05-08 03:44 -6.09842 115.04051 37870 ft 475 kts 178°
2026-05-08 03:45 -6.16411 115.04422 37872 ft 475 kts 179°
2026-05-08 03:45 -6.23024 115.04795 37871 ft 475 kts 179°
2026-05-08 03:46 -6.29626 115.05168 37871 ft 474 kts 178°
2026-05-08 03:46 -6.36225 115.05541 37870 ft 474 kts 178°
2026-05-08 03:47 -6.42816 115.05913 37868 ft 474 kts 178°
2026-05-08 03:47 -6.49417 115.06286 37870 ft 474 kts 178°
2026-05-08 03:48 -6.56011 115.06658 37875 ft 475 kts 179°
2026-05-08 03:48 -6.62613 115.07032 37873 ft 474 kts 179°
2026-05-08 03:49 -6.69204 115.07404 37871 ft 474 kts 179°
2026-05-08 03:49 -6.75752 115.07775 37873 ft 474 kts 178°
2026-05-08 03:50 -6.82346 115.08148 37871 ft 474 kts 178°
2026-05-08 03:50 -6.88950 115.08475 37876 ft 474 kts 179°
2026-05-08 03:51 -6.95553 115.08732 37875 ft 474 kts 179°
2026-05-08 03:51 -7.02149 115.08993 37873 ft 474 kts 179°
2026-05-08 03:52 -7.08700 115.09265 37869 ft 474 kts 179°
2026-05-08 03:52 -7.15298 115.09544 37870 ft 474 kts 179°
2026-05-08 03:53 -7.21894 115.09824 37874 ft 474 kts 179°
2026-05-08 03:53 -7.28496 115.10104 37873 ft 475 kts 179°
2026-05-08 03:54 -7.35108 115.10384 37871 ft 475 kts 179°
2026-05-08 03:54 -7.41717 115.10664 37873 ft 475 kts 179°
2026-05-08 03:55 -7.48301 115.10943 37877 ft 475 kts 179°
2026-05-08 03:55 -7.54913 115.11223 37875 ft 475 kts 179°
2026-05-08 03:56 -7.61536 115.11504 37871 ft 475 kts 179°
2026-05-08 03:56 -7.68108 115.11783 37873 ft 476 kts 179°
2026-05-08 03:57 -7.74729 115.12063 37871 ft 476 kts 179°
2026-05-08 03:57 -7.81351 115.12344 37870 ft 476 kts 179°
2026-05-08 03:58 -7.87962 115.12625 37874 ft 476 kts 179°
2026-05-08 03:58 -7.94581 115.12906 37875 ft 475 kts 179°
2026-05-08 03:59 -8.01184 115.13187 37885 ft 474 kts 179°
2026-05-08 03:59 -8.07736 115.13465 37884 ft 474 kts 179°
2026-05-08 04:00 -8.14332 115.13745 37896 ft 474 kts 179°
2026-05-08 04:00 -8.20932 115.14026 37898 ft 474 kts 179°
2026-05-08 04:01 -8.27524 115.14306 37900 ft 474 kts 179°
2026-05-08 04:01 -8.34114 115.14587 37899 ft 473 kts 179°
2026-05-08 04:02 -8.40709 115.14869 37900 ft 473 kts 179°
2026-05-08 04:02 -8.47253 115.15147 37896 ft 473 kts 179°
2026-05-08 04:03 -8.53829 115.15425 37889 ft 473 kts 179°
2026-05-08 04:03 -8.62586 115.15799 37885 ft 473 kts 179°
2026-05-08 04:04 -8.69170 115.16080 37884 ft 473 kts 179°
2026-05-08 04:04 -8.75725 115.16666 37884 ft 475 kts 169°
2026-05-08 04:05 -8.82152 115.18251 37884 ft 476 kts 167°
2026-05-08 04:05 -8.88547 115.20020 37884 ft 477 kts 166°
2026-05-08 04:06 -8.94946 115.21822 37888 ft 477 kts 167°
2026-05-08 04:06 -9.01357 115.23613 37889 ft 478 kts 167°
2026-05-08 04:07 -9.07774 115.25395 37892 ft 478 kts 167°
2026-05-08 04:07 -9.14193 115.27175 37892 ft 478 kts 167°
2026-05-08 04:08 -9.20571 115.28945 37892 ft 478 kts 167°
2026-05-08 04:08 -9.26988 115.30727 37892 ft 478 kts 167°
2026-05-08 04:09 -9.33421 115.32514 37892 ft 478 kts 167°
2026-05-08 04:09 -9.39852 115.34301 37892 ft 478 kts 167°
2026-05-08 04:10 -9.46280 115.36088 37894 ft 478 kts 167°
2026-05-08 04:10 -9.52693 115.37871 37894 ft 478 kts 167°
2026-05-08 04:11 -9.59077 115.39647 37896 ft 478 kts 167°
2026-05-08 04:11 -9.65506 115.41436 37895 ft 479 kts 167°
2026-05-08 04:12 -9.71947 115.43230 37889 ft 480 kts 167°
2026-05-08 04:12 -9.78381 115.45022 37892 ft 480 kts 167°
2026-05-08 04:13 -9.84814 115.46815 37895 ft 480 kts 167°
2026-05-08 04:13 -9.91249 115.48609 37895 ft 479 kts 167°
2026-05-08 04:14 -9.97689 115.50405 37895 ft 479 kts 167°
2026-05-08 04:14 -10.04089 115.52190 37895 ft 479 kts 167°
2026-05-08 04:15 -10.10532 115.53989 37898 ft 479 kts 167°
2026-05-08 04:15 -10.16971 115.55786 37896 ft 480 kts 167°
2026-05-08 04:16 -10.23406 115.57584 37892 ft 479 kts 167°
2026-05-08 04:16 -10.29840 115.59382 37898 ft 478 kts 167°
2026-05-08 04:17 -10.36254 115.61176 37898 ft 478 kts 167°
2026-05-08 04:17 -10.42638 115.62961 37898 ft 478 kts 167°
2026-05-08 04:18 -10.49059 115.64758 37901 ft 478 kts 167°
2026-05-08 04:18 -10.55481 115.66555 37907 ft 478 kts 167°
2026-05-08 04:19 -10.61912 115.68356 37904 ft 480 kts 167°
2026-05-08 04:19 -10.68357 115.70162 37904 ft 480 kts 167°
2026-05-08 04:20 -10.74795 115.71967 37905 ft 480 kts 167°
2026-05-08 04:20 -10.81193 115.73761 37905 ft 480 kts 167°
2026-05-08 04:21 -10.87630 115.75567 37908 ft 480 kts 167°
2026-05-08 04:21 -10.94076 115.77377 37903 ft 480 kts 168°
2026-05-08 04:22 -11.00516 115.79185 37902 ft 480 kts 168°
2026-05-08 04:22 -11.06959 115.80995 37909 ft 480 kts 168°
2026-05-08 04:23 -11.13373 115.82798 37909 ft 480 kts 168°
2026-05-08 04:23 -11.19810 115.84624 37908 ft 480 kts 167°
2026-05-08 04:24 -11.26226 115.86588 37909 ft 482 kts 166°
2026-05-08 04:24 -11.32639 115.88590 37911 ft 482 kts 166°
2026-05-08 04:25 -11.39061 115.90579 37911 ft 482 kts 166°
2026-05-08 04:25 -11.45451 115.92544 37911 ft 482 kts 167°
2026-05-08 04:26 -11.51883 115.94519 37911 ft 482 kts 167°
2026-05-08 04:26 -11.58318 115.96496 37914 ft 482 kts 167°
2026-05-08 04:27 -11.64745 115.98471 37911 ft 482 kts 167°
2026-05-08 04:27 -11.71184 116.00452 37919 ft 482 kts 167°
2026-05-08 04:28 -11.77573 116.02418 37913 ft 482 kts 167°
2026-05-08 04:28 -11.84007 116.04400 37921 ft 482 kts 167°
2026-05-08 04:29 -11.90443 116.06383 37919 ft 482 kts 167°
2026-05-08 04:29 -11.96827 116.08351 37919 ft 482 kts 167°
2026-05-08 04:30 -12.03357 116.09574 37922 ft 475 kts 178°
2026-05-08 04:30 -12.09949 116.10182 37923 ft 475 kts 179°
2026-05-08 04:31 -12.16541 116.10690 37933 ft 475 kts 180°
2026-05-08 04:31 -12.23123 116.11198 37925 ft 473 kts 180°
2026-05-08 04:32 -12.29679 116.11718 37920 ft 473 kts 180°
2026-05-08 04:32 -12.36239 116.12246 37921 ft 473 kts 180°
2026-05-08 04:33 -12.42771 116.12772 37925 ft 473 kts 180°
2026-05-08 04:33 -12.49336 116.13302 37921 ft 473 kts 180°
2026-05-08 04:34 -12.55896 116.13832 37939 ft 472 kts 180°
2026-05-08 04:34 -12.62391 116.14355 37922 ft 471 kts 180°
2026-05-08 04:35 -12.68938 116.14883 37929 ft 471 kts 180°
2026-05-08 04:35 -12.75480 116.15411 37926 ft 471 kts 180°
2026-05-08 04:36 -12.82023 116.15940 37934 ft 471 kts 180°
2026-05-08 04:36 -12.88566 116.16469 37933 ft 471 kts 180°
2026-05-08 04:37 -12.95096 116.16997 37931 ft 471 kts 180°
2026-05-08 04:37 -13.01595 116.17523 37929 ft 471 kts 180°
2026-05-08 04:38 -13.08128 116.18052 37929 ft 471 kts 180°
2026-05-08 04:38 -13.14678 116.18582 37928 ft 471 kts 180°
2026-05-08 04:39 -13.21220 116.19112 37935 ft 471 kts 180°
2026-05-08 04:39 -13.27726 116.19640 37932 ft 471 kts 180°
2026-05-08 04:40 -13.34263 116.20170 37928 ft 471 kts 180°
2026-05-08 04:40 -13.40805 116.20701 37928 ft 471 kts 180°
2026-05-08 04:41 -13.47345 116.21233 37949 ft 471 kts 181°
2026-05-08 04:41 -13.53823 116.21760 37932 ft 469 kts 181°
2026-05-08 04:42 -13.60336 116.22290 37934 ft 469 kts 181°
2026-05-08 04:42 -13.66849 116.22819 37932 ft 469 kts 181°
2026-05-08 04:43 -13.73362 116.23349 37938 ft 469 kts 181°
2026-05-08 04:43 -13.79873 116.23879 37942 ft 469 kts 181°
2026-05-08 04:44 -13.86321 116.24405 37939 ft 468 kts 181°
2026-05-08 04:44 -13.92824 116.24935 37937 ft 468 kts 181°
2026-05-08 04:45 -13.99318 116.25465 37943 ft 468 kts 181°
2026-05-08 04:45 -14.05822 116.25995 37942 ft 468 kts 181°
2026-05-08 04:46 -14.12323 116.26526 37949 ft 468 kts 181°
2026-05-08 04:46 -14.18824 116.27058 37948 ft 468 kts 181°
2026-05-08 04:47 -14.25278 116.27585 37949 ft 468 kts 181°
2026-05-08 04:47 -14.31777 116.28117 37949 ft 468 kts 181°
2026-05-08 04:48 -14.38284 116.28650 37940 ft 468 kts 181°
2026-05-08 04:48 -14.44787 116.29183 37951 ft 468 kts 181°
2026-05-08 04:49 -14.51288 116.29716 37950 ft 468 kts 181°
2026-05-08 04:49 -14.57793 116.30249 37951 ft 468 kts 181°
2026-05-08 04:50 -14.64248 116.30779 37954 ft 468 kts 181°
2026-05-08 04:50 -14.70760 116.31314 37955 ft 468 kts 181°
2026-05-08 04:51 -14.77253 116.31848 37953 ft 468 kts 181°
2026-05-08 04:51 -14.82652 116.32296 37953 ft 467 kts 181°
2026-05-08 04:52 -14.89143 116.32830 37952 ft 467 kts 181°
2026-05-08 04:52 -14.95630 116.33360 37954 ft 467 kts 181°
2026-05-08 04:53 -15.02121 116.33895 37966 ft 467 kts 181°
2026-05-08 04:53 -15.08563 116.34430 37955 ft 467 kts 182°
2026-05-08 04:54 -15.15061 116.34961 37955 ft 468 kts 182°
2026-05-08 04:54 -15.21555 116.35495 37955 ft 468 kts 182°
2026-05-08 04:55 -15.28053 116.36031 37958 ft 468 kts 182°
2026-05-08 04:55 -15.34493 116.36564 37958 ft 468 kts 182°
2026-05-08 04:56 -15.40987 116.37105 37961 ft 468 kts 182°
2026-05-08 04:56 -15.47496 116.37639 37960 ft 469 kts 182°
2026-05-08 04:57 -15.54016 116.38177 37963 ft 469 kts 182°
2026-05-08 04:57 -15.60533 116.38716 37963 ft 469 kts 182°
2026-05-08 04:58 -15.67041 116.39256 37962 ft 469 kts 182°
2026-05-08 04:58 -15.73514 116.39793 37964 ft 469 kts 182°
2026-05-08 04:59 -15.80020 116.40340 37965 ft 469 kts 182°
2026-05-08 04:59 -15.86528 116.40878 37962 ft 469 kts 182°
2026-05-08 05:00 -15.93033 116.41414 37970 ft 469 kts 182°
2026-05-08 05:00 -15.99541 116.41954 37992 ft 469 kts 183°
2026-05-08 05:01 -16.06000 116.42499 37969 ft 468 kts 183°
2026-05-08 05:01 -16.12503 116.43040 37971 ft 468 kts 183°
2026-05-08 05:02 -16.18999 116.43576 37971 ft 468 kts 183°
2026-05-08 05:02 -16.25502 116.44116 37974 ft 468 kts 183°
2026-05-08 05:03 -16.31996 116.44657 37971 ft 468 kts 183°
2026-05-08 05:03 -16.38498 116.45200 37974 ft 468 kts 183°
2026-05-08 05:04 -16.44966 116.45740 37977 ft 468 kts 183°
2026-05-08 05:04 -16.51466 116.46283 37977 ft 468 kts 183°
2026-05-08 05:05 -16.57977 116.46828 37974 ft 468 kts 183°
2026-05-08 05:05 -16.64480 116.47372 37973 ft 468 kts 184°
2026-05-08 05:06 -16.70976 116.47916 37976 ft 468 kts 184°
2026-05-08 05:06 -16.77473 116.48461 37977 ft 468 kts 184°
2026-05-08 05:07 -16.83975 116.49006 37979 ft 469 kts 184°
2026-05-08 05:07 -16.90441 116.49548 37982 ft 469 kts 184°
2026-05-08 05:08 -16.96947 116.50096 37982 ft 467 kts 184°
2026-05-08 05:08 -17.03422 116.50641 37979 ft 466 kts 184°
2026-05-08 05:09 -17.09895 116.51184 37980 ft 466 kts 184°
2026-05-08 05:09 -17.16364 116.51728 37983 ft 466 kts 184°
2026-05-08 05:10 -17.26027 116.52541 37984 ft 466 kts 185°
2026-05-08 05:11 -17.32483 116.53087 37989 ft 465 kts 185°
2026-05-08 05:11 -17.38930 116.53631 37986 ft 464 kts 185°
2026-05-08 05:12 -17.45375 116.54174 37986 ft 464 kts 185°
2026-05-08 05:12 -17.51838 116.54719 37994 ft 465 kts 185°
2026-05-08 05:13 -17.58245 116.55261 37996 ft 464 kts 185°
2026-05-08 05:13 -17.64669 116.55806 37996 ft 462 kts 185°
2026-05-08 05:14 -17.71088 116.56349 37997 ft 462 kts 185°
2026-05-08 05:14 -17.77514 116.56892 37998 ft 463 kts 185°
2026-05-08 05:15 -17.83955 116.57437 38001 ft 464 kts 185°
2026-05-08 05:15 -17.90363 116.57981 38002 ft 464 kts 185°
2026-05-08 05:16 -17.96796 116.58528 38001 ft 464 kts 185°
2026-05-08 05:16 -18.03227 116.59075 38004 ft 464 kts 185°
2026-05-08 05:17 -18.09666 116.59622 38007 ft 464 kts 185°
2026-05-08 05:17 -18.16106 116.60174 38042 ft 464 kts 186°
2026-05-08 05:18 -18.22540 116.60721 38012 ft 464 kts 186°
2026-05-08 05:18 -18.28929 116.61263 38013 ft 464 kts 186°
2026-05-08 05:19 -18.35366 116.61811 38014 ft 464 kts 186°
2026-05-08 05:19 -18.41787 116.62359 38014 ft 464 kts 186°
2026-05-08 05:20 -18.48226 116.62909 38022 ft 464 kts 186°
2026-05-08 05:20 -18.54631 116.63456 38018 ft 465 kts 186°
2026-05-08 05:21 -18.61081 116.64008 38020 ft 465 kts 186°
2026-05-08 05:21 -18.67539 116.64561 38020 ft 465 kts 186°
2026-05-08 05:22 -18.73994 116.65114 38023 ft 465 kts 186°
2026-05-08 05:22 -18.80450 116.65667 38024 ft 466 kts 186°
2026-05-08 05:23 -18.86923 116.66222 38026 ft 467 kts 186°
2026-05-08 05:23 -18.93405 116.66779 38025 ft 467 kts 186°
2026-05-08 05:24 -18.99845 116.67334 38031 ft 467 kts 186°
2026-05-08 05:24 -19.06320 116.67891 38076 ft 467 kts 186°
2026-05-08 05:25 -19.12807 116.68448 38034 ft 468 kts 186°
2026-05-08 05:25 -19.19299 116.69006 38040 ft 468 kts 186°
2026-05-08 05:26 -19.25812 116.69568 38040 ft 468 kts 186°
2026-05-08 05:26 -19.32275 116.70127 38042 ft 468 kts 186°
2026-05-08 05:27 -19.38775 116.70688 38044 ft 468 kts 186°
2026-05-08 05:27 -19.45271 116.71250 38045 ft 468 kts 186°
2026-05-08 05:28 -19.51772 116.71812 38044 ft 468 kts 186°
2026-05-08 05:28 -19.58275 116.72375 38045 ft 468 kts 186°
2026-05-08 05:29 -19.64731 116.72934 38046 ft 468 kts 186°
2026-05-08 05:29 -19.71221 116.73497 38060 ft 467 kts 185°
2026-05-08 05:30 -19.77709 116.74061 38047 ft 467 kts 185°
2026-05-08 05:30 -19.84194 116.74624 38053 ft 467 kts 185°
2026-05-08 05:31 -19.90682 116.75187 38057 ft 467 kts 185°
2026-05-08 05:31 -19.97159 116.75750 38076 ft 467 kts 185°
2026-05-08 05:32 -20.03629 116.76314 38059 ft 466 kts 185°
2026-05-08 05:32 -20.10048 116.76874 38059 ft 465 kts 185°
2026-05-08 05:33 -20.16509 116.77436 38060 ft 465 kts 185°
2026-05-08 05:33 -20.22970 116.78000 38066 ft 465 kts 185°
2026-05-08 05:34 -20.29426 116.78564 38072 ft 464 kts 185°
2026-05-08 05:34 -20.35852 116.79128 38065 ft 463 kts 185°
2026-05-08 05:35 -20.42230 116.79685 38066 ft 463 kts 185°
2026-05-08 05:35 -20.48650 116.80245 38068 ft 463 kts 185°
2026-05-08 05:36 -20.55079 116.80808 38101 ft 463 kts 186°
2026-05-08 05:36 -20.61465 116.81370 38065 ft 461 kts 186°
2026-05-08 05:37 -20.67853 116.81932 38067 ft 460 kts 186°
2026-05-08 05:37 -20.74235 116.82491 38067 ft 460 kts 186°
2026-05-08 05:38 -20.80580 116.83048 38064 ft 460 kts 186°
2026-05-08 05:38 -20.86962 116.83609 38079 ft 460 kts 186°
2026-05-08 05:39 -20.93320 116.84171 38067 ft 458 kts 186°
2026-05-08 05:39 -20.99667 116.84731 38068 ft 457 kts 186°
2026-05-08 05:40 -21.06022 116.85290 38069 ft 458 kts 186°
2026-05-08 05:40 -21.12342 116.85847 38070 ft 458 kts 186°
2026-05-08 05:41 -21.18701 116.86410 38068 ft 457 kts 186°
2026-05-08 05:41 -21.23929 116.86527 38072 ft 449 kts 191°
2026-05-08 05:42 -21.30177 116.86420 38073 ft 448 kts 192°
2026-05-08 05:42 -21.36412 116.86263 38075 ft 448 kts 192°
2026-05-08 05:43 -21.42652 116.86106 38072 ft 448 kts 192°
2026-05-08 05:43 -21.48896 116.85956 38074 ft 449 kts 192°
2026-05-08 05:44 -21.55145 116.85810 38082 ft 449 kts 192°
2026-05-08 05:44 -21.61392 116.85665 38073 ft 449 kts 192°
2026-05-08 05:45 -21.67636 116.85519 38080 ft 449 kts 192°
2026-05-08 05:45 -21.73889 116.85373 38108 ft 449 kts 192°
2026-05-08 05:46 -21.80094 116.85227 38080 ft 449 kts 192°
2026-05-08 05:46 -21.86349 116.85080 38079 ft 449 kts 192°
2026-05-08 05:47 -21.92604 116.84932 38081 ft 450 kts 192°
2026-05-08 05:47 -21.98876 116.84786 38081 ft 449 kts 192°
2026-05-08 05:48 -22.05135 116.84639 38089 ft 450 kts 191°
2026-05-08 05:48 -22.11395 116.84491 38081 ft 450 kts 191°
2026-05-08 05:49 -22.17624 116.84344 38075 ft 450 kts 191°
2026-05-08 05:49 -22.23889 116.84197 38078 ft 450 kts 191°
2026-05-08 05:50 -22.30157 116.84049 38081 ft 450 kts 191°
2026-05-08 05:50 -22.36421 116.83901 38078 ft 450 kts 191°
2026-05-08 05:51 -22.42696 116.83752 38083 ft 450 kts 191°
2026-05-08 05:51 -22.48964 116.83604 38079 ft 450 kts 191°
2026-05-08 05:52 -22.55186 116.83457 38082 ft 450 kts 191°
2026-05-08 05:52 -22.61447 116.83308 38103 ft 450 kts 191°
2026-05-08 05:53 -22.67713 116.83159 38083 ft 451 kts 191°
2026-05-08 05:53 -22.73981 116.83011 38081 ft 450 kts 191°
2026-05-08 05:54 -22.80254 116.82861 38080 ft 450 kts 191°
2026-05-08 05:54 -22.86528 116.82712 38081 ft 450 kts 191°
2026-05-08 05:55 -22.92791 116.82562 38096 ft 450 kts 191°
2026-05-08 05:55 -22.99024 116.82414 38085 ft 450 kts 191°
2026-05-08 05:56 -23.05289 116.82265 38083 ft 450 kts 191°
2026-05-08 05:56 -23.11564 116.82115 38089 ft 450 kts 191°
2026-05-08 05:57 -23.17834 116.81965 38083 ft 450 kts 191°
2026-05-08 05:57 -23.24099 116.81815 38088 ft 450 kts 191°
2026-05-08 05:58 -23.30331 116.81665 38092 ft 451 kts 191°
2026-05-08 05:58 -23.36604 116.81515 38096 ft 451 kts 191°
2026-05-08 05:59 -23.42879 116.81364 38098 ft 451 kts 191°
2026-05-08 05:59 -23.49162 116.81213 38119 ft 451 kts 191°
2026-05-08 06:00 -23.55430 116.81062 38108 ft 450 kts 191°
2026-05-08 06:00 -23.61709 116.80911 38107 ft 451 kts 191°
2026-05-08 06:01 -23.67943 116.80761 38112 ft 450 kts 191°
2026-05-08 06:01 -23.74221 116.80610 38111 ft 451 kts 191°
2026-05-08 06:02 -23.80496 116.80458 38110 ft 451 kts 190°
2026-05-08 06:02 -23.86787 116.80305 38113 ft 452 kts 190°
2026-05-08 06:03 -23.93085 116.80153 38113 ft 452 kts 190°
2026-05-08 06:03 -23.99375 116.80001 38118 ft 452 kts 190°
2026-05-08 06:04 -24.05666 116.79849 38146 ft 452 kts 190°
2026-05-08 06:04 -24.11919 116.79698 38122 ft 453 kts 190°
2026-05-08 06:05 -24.18235 116.79547 38118 ft 453 kts 190°
2026-05-08 06:05 -24.24550 116.79392 38124 ft 453 kts 190°
2026-05-08 06:06 -24.30853 116.79238 38124 ft 453 kts 190°
2026-05-08 06:06 -24.37121 116.79084 38132 ft 453 kts 189°
2026-05-08 06:07 -24.43452 116.78929 38127 ft 455 kts 189°
2026-05-08 06:07 -24.49781 116.78776 38131 ft 455 kts 189°
2026-05-08 06:08 -24.56116 116.78623 38137 ft 455 kts 189°
2026-05-08 06:08 -24.62450 116.78469 38161 ft 455 kts 188°
2026-05-08 06:09 -24.68781 116.78315 38140 ft 456 kts 188°
2026-05-08 06:09 -24.75124 116.78159 38137 ft 456 kts 188°
2026-05-08 06:10 -24.81473 116.78004 38151 ft 456 kts 188°
2026-05-08 06:10 -24.87779 116.77850 38137 ft 456 kts 188°
2026-05-08 06:11 -24.94134 116.77693 38144 ft 456 kts 188°
2026-05-08 06:11 -25.00497 116.77537 38143 ft 457 kts 188°
2026-05-08 06:12 -25.06863 116.77380 38150 ft 457 kts 188°
2026-05-08 06:12 -25.13221 116.77223 38151 ft 457 kts 188°
2026-05-08 06:13 -25.19547 116.77067 38151 ft 457 kts 188°
2026-05-08 06:13 -25.25915 116.76910 38154 ft 457 kts 188°
2026-05-08 06:14 -25.32290 116.76752 38157 ft 457 kts 188°
2026-05-08 06:14 -25.38615 116.76596 38157 ft 457 kts 188°
2026-05-08 06:15 -25.44984 116.76438 38157 ft 457 kts 188°
2026-05-08 06:15 -25.51349 116.76278 38161 ft 458 kts 187°
2026-05-08 06:16 -25.57722 116.76119 38167 ft 458 kts 187°
2026-05-08 06:16 -25.64106 116.75960 38165 ft 458 kts 187°
2026-05-08 06:17 -25.73639 116.75723 38170 ft 458 kts 187°
2026-05-08 06:17 -25.80029 116.75563 38173 ft 459 kts 187°
2026-05-08 06:18 -25.86440 116.75403 38173 ft 459 kts 187°
2026-05-08 06:18 -25.92791 116.75244 38175 ft 459 kts 187°
2026-05-08 06:19 -25.99180 116.75085 38176 ft 459 kts 187°
2026-05-08 06:19 -26.05578 116.74924 38180 ft 460 kts 186°
2026-05-08 06:20 -26.11984 116.74763 38178 ft 460 kts 186°
2026-05-08 06:20 -26.18394 116.74602 38181 ft 460 kts 186°
2026-05-08 06:21 -26.24760 116.74442 38189 ft 460 kts 186°
2026-05-08 06:21 -26.31156 116.74281 38187 ft 460 kts 186°
2026-05-08 06:22 -26.37565 116.74120 38191 ft 460 kts 186°
2026-05-08 06:22 -26.43968 116.73958 38190 ft 460 kts 186°
2026-05-08 06:23 -26.50376 116.73796 38194 ft 460 kts 186°
2026-05-08 06:23 -26.56777 116.73635 38197 ft 460 kts 186°
2026-05-08 06:24 -26.63138 116.73474 38200 ft 460 kts 185°
2026-05-08 06:24 -26.69546 116.73319 38204 ft 460 kts 185°
2026-05-08 06:25 -26.75951 116.73153 38202 ft 460 kts 185°
2026-05-08 06:25 -26.82348 116.72988 38206 ft 460 kts 185°
2026-05-08 06:26 -26.88754 116.72824 38207 ft 460 kts 185°
2026-05-08 06:26 -26.95120 116.72662 38208 ft 459 kts 185°
2026-05-08 06:27 -27.01520 116.72499 38214 ft 459 kts 185°
2026-05-08 06:27 -27.07919 116.72336 38215 ft 459 kts 185°
2026-05-08 06:28 -27.14268 116.72174 38220 ft 458 kts 185°
2026-05-08 06:28 -27.20635 116.72012 38209 ft 457 kts 185°
2026-05-08 06:29 -27.26996 116.71849 38222 ft 457 kts 185°
2026-05-08 06:29 -27.33368 116.71685 38222 ft 457 kts 185°
2026-05-08 06:30 -27.38654 116.71550 38224 ft 457 kts 185°
2026-05-08 06:30 -27.45016 116.71387 38233 ft 457 kts 185°
2026-05-08 06:31 -27.51383 116.71223 38224 ft 457 kts 185°
2026-05-08 06:31 -27.57742 116.71059 38228 ft 457 kts 185°
2026-05-08 06:32 -27.64102 116.70896 38237 ft 457 kts 185°
2026-05-08 06:32 -27.70410 116.70733 38235 ft 456 kts 184°
2026-05-08 06:33 -27.76772 116.70569 38240 ft 456 kts 184°
2026-05-08 06:33 -27.83131 116.70405 38240 ft 456 kts 184°
2026-05-08 06:34 -27.89489 116.70240 38245 ft 456 kts 184°
2026-05-08 06:34 -27.95807 116.70075 38246 ft 456 kts 184°
2026-05-08 06:35 -28.02154 116.69911 38253 ft 456 kts 184°
2026-05-08 06:35 -28.08501 116.69747 38251 ft 456 kts 184°
2026-05-08 06:36 -28.14867 116.69581 38246 ft 456 kts 184°
2026-05-08 06:36 -28.21216 116.69416 38253 ft 456 kts 184°
2026-05-08 06:37 -28.27560 116.69251 38252 ft 456 kts 184°
2026-05-08 06:37 -28.33865 116.69086 38256 ft 456 kts 184°
2026-05-08 06:38 -28.40216 116.68920 38253 ft 456 kts 184°
2026-05-08 06:38 -28.46564 116.68754 38269 ft 456 kts 184°
2026-05-08 06:39 -28.52914 116.68588 38259 ft 456 kts 184°
2026-05-08 06:39 -28.59254 116.68422 38260 ft 456 kts 184°
2026-05-08 06:40 -28.65601 116.68255 38265 ft 456 kts 184°
2026-05-08 06:40 -28.71944 116.68089 38264 ft 456 kts 184°
2026-05-08 06:41 -28.78244 116.67923 38268 ft 456 kts 184°
2026-05-08 06:41 -28.84591 116.67756 38274 ft 456 kts 184°
2026-05-08 06:42 -28.90928 116.67589 38273 ft 456 kts 184°
2026-05-08 06:42 -28.97271 116.67421 38276 ft 456 kts 184°
2026-05-08 06:43 -29.03616 116.67253 38276 ft 456 kts 184°
2026-05-08 06:43 -29.09920 116.67086 38279 ft 456 kts 184°
2026-05-08 06:44 -29.16268 116.66919 38285 ft 456 kts 184°
2026-05-08 06:44 -29.22613 116.66755 38251 ft 457 kts 184°
2026-05-08 06:45 -29.25793 116.66669 37994 ft 457 kts 184°
2026-05-08 06:45 -29.28982 116.66583 37729 ft 458 kts 184°
2026-05-08 06:45 -29.32175 116.66496 37469 ft 459 kts 184°
2026-05-08 06:45 -29.35376 116.66410 37208 ft 460 kts 184°
2026-05-08 06:46 -29.38540 116.66326 36945 ft 460 kts 184°
2026-05-08 06:46 -29.41747 116.66240 36715 ft 461 kts 184°
2026-05-08 06:46 -29.44957 116.66155 36461 ft 461 kts 183°
2026-05-08 06:46 -29.48169 116.66069 36211 ft 461 kts 184°
2026-05-08 06:47 -29.51384 116.65983 35975 ft 462 kts 183°
2026-05-08 06:47 -29.54596 116.65898 35733 ft 462 kts 183°
2026-05-08 06:47 -29.57816 116.65812 35499 ft 463 kts 183°
2026-05-08 06:47 -29.61038 116.65726 35261 ft 463 kts 183°
2026-05-08 06:48 -29.64261 116.65640 34995 ft 464 kts 183°
2026-05-08 06:48 -29.67487 116.65554 34675 ft 463 kts 183°
2026-05-08 06:48 -29.70709 116.65469 34352 ft 460 kts 183°
2026-05-08 06:48 -29.73900 116.65383 33966 ft 455 kts 183°
2026-05-08 06:49 -29.76997 116.65300 33605 ft 449 kts 182°
2026-05-08 06:49 -29.80102 116.65219 33236 ft 444 kts 183°
2026-05-08 06:49 -29.83179 116.65137 32865 ft 439 kts 183°
2026-05-08 06:49 -29.86230 116.65054 32502 ft 435 kts 182°
2026-05-08 06:50 -29.89252 116.64973 32143 ft 431 kts 182°
2026-05-08 06:50 -29.92246 116.64892 31791 ft 429 kts 182°
2026-05-08 06:50 -29.95176 116.64812 31421 ft 426 kts 182°
2026-05-08 06:50 -29.98146 116.64730 31037 ft 425 kts 182°
2026-05-08 06:51 -30.01096 116.64650 30649 ft 424 kts 182°
2026-05-08 06:51 -30.04049 116.64571 30249 ft 423 kts 181°
2026-05-08 06:51 -30.06990 116.64492 29800 ft 422 kts 181°
2026-05-08 06:51 -30.09928 116.64413 29357 ft 422 kts 181°
2026-05-08 06:52 -30.12860 116.64333 28931 ft 422 kts 181°
2026-05-08 06:52 -30.15793 116.64253 28492 ft 421 kts 181°
2026-05-08 06:52 -30.18736 116.64173 28006 ft 423 kts 181°
2026-05-08 06:52 -30.21686 116.64093 27511 ft 424 kts 181°
2026-05-08 06:53 -30.24651 116.64012 27027 ft 426 kts 181°
2026-05-08 06:53 -30.27580 116.63933 26555 ft 426 kts 181°
2026-05-08 06:53 -30.30546 116.63853 26092 ft 427 kts 180°
2026-05-08 06:53 -30.33518 116.63773 25630 ft 428 kts 180°
2026-05-08 06:54 -30.36494 116.63692 25170 ft 428 kts 180°
2026-05-08 06:54 -30.39479 116.63611 24732 ft 429 kts 180°
2026-05-08 06:54 -30.42464 116.63527 24283 ft 430 kts 180°
2026-05-08 06:54 -30.45460 116.63443 23846 ft 430 kts 180°
2026-05-08 06:55 -30.48458 116.63359 23329 ft 430 kts 179°
2026-05-08 06:55 -30.51458 116.63279 22820 ft 431 kts 180°
2026-05-08 06:55 -30.54444 116.63021 22324 ft 431 kts 186°
2026-05-08 06:55 -30.57377 116.62301 21828 ft 430 kts 193°
2026-05-08 06:56 -30.60253 116.61330 21349 ft 429 kts 195°
2026-05-08 06:56 -30.63081 116.60274 20873 ft 426 kts 196°
2026-05-08 06:56 -30.65896 116.59172 20413 ft 428 kts 197°
2026-05-08 06:56 -30.68714 116.58051 19959 ft 427 kts 197°
2026-05-08 06:57 -30.71477 116.56950 19532 ft 422 kts 197°
2026-05-08 06:57 -30.74239 116.55854 19176 ft 416 kts 197°
2026-05-08 06:57 -30.76983 116.54773 18826 ft 416 kts 196°
2026-05-08 06:57 -30.79723 116.53701 18676 ft 415 kts 196°
2026-05-08 06:58 -30.82474 116.52632 18671 ft 416 kts 196°
2026-05-08 06:58 -30.85222 116.51562 18671 ft 416 kts 196°
2026-05-08 06:58 -30.87967 116.50490 18670 ft 416 kts 196°
2026-05-08 06:58 -30.90709 116.49418 18667 ft 415 kts 196°
2026-05-08 06:59 -30.93447 116.48347 18658 ft 416 kts 196°
2026-05-08 06:59 -30.96192 116.47273 18387 ft 416 kts 196°
2026-05-08 06:59 -30.98890 116.46216 18023 ft 414 kts 196°
2026-05-08 06:59 -31.01616 116.45149 17656 ft 412 kts 196°
2026-05-08 07:00 -31.04326 116.44088 17296 ft 410 kts 196°
2026-05-08 07:00 -31.07032 116.43027 16938 ft 408 kts 197°
2026-05-08 07:00 -31.09726 116.41969 16573 ft 406 kts 196°
2026-05-08 07:00 -31.12404 116.40918 16220 ft 405 kts 197°
2026-05-08 07:01 -31.15070 116.39870 15880 ft 403 kts 197°
2026-05-08 07:01 -31.17732 116.38824 15538 ft 402 kts 197°
2026-05-08 07:01 -31.20377 116.37783 15196 ft 400 kts 197°
2026-05-08 07:01 -31.23017 116.36744 14861 ft 398 kts 197°
2026-05-08 07:02 -31.25638 116.35712 14534 ft 397 kts 197°
2026-05-08 07:02 -31.28219 116.34696 14208 ft 395 kts 197°
2026-05-08 07:02 -31.30819 116.33670 13851 ft 394 kts 197°
2026-05-08 07:02 -31.33410 116.32649 13484 ft 392 kts 197°
2026-05-08 07:03 -31.35989 116.31631 13125 ft 390 kts 197°
2026-05-08 07:03 -31.38554 116.30619 12761 ft 388 kts 197°
2026-05-08 07:03 -31.41103 116.29569 12403 ft 388 kts 200°
2026-05-08 07:03 -31.43536 116.28203 12054 ft 387 kts 206°
2026-05-08 07:04 -31.45909 116.26701 11706 ft 386 kts 207°
2026-05-08 07:04 -31.48256 116.25191 11425 ft 384 kts 207°
2026-05-08 07:04 -31.50591 116.23689 11181 ft 382 kts 207°
2026-05-08 07:04 -31.52914 116.22199 10943 ft 380 kts 207°
2026-05-08 07:05 -31.55240 116.20707 10702 ft 379 kts 207°
2026-05-08 07:05 -31.57549 116.19227 10465 ft 378 kts 207°
2026-05-08 07:05 -31.59821 116.17770 10231 ft 377 kts 207°
2026-05-08 07:05 -31.62118 116.16296 9975 ft 375 kts 207°
2026-05-08 07:06 -31.64382 116.14843 9758 ft 364 kts 207°
2026-05-08 07:06 -31.66576 116.13437 9556 ft 353 kts 207°
2026-05-08 07:06 -31.68700 116.12071 9369 ft 342 kts 207°
2026-05-08 07:06 -31.70757 116.10748 9191 ft 332 kts 207°
2026-05-08 07:07 -31.72764 116.09457 9026 ft 323 kts 207°
2026-05-08 07:07 -31.74723 116.08261 8817 ft 310 kts 202°
2026-05-08 07:07 -31.76685 116.07525 8555 ft 291 kts 189°
2026-05-08 07:07 -31.78690 116.07067 8370 ft 296 kts 187°
2026-05-08 07:08 -31.80720 116.06652 8194 ft 294 kts 185°
2026-05-08 07:08 -31.82753 116.06537 8035 ft 291 kts 171°
2026-05-08 07:08 -31.84705 116.07039 7998 ft 284 kts 156°
2026-05-08 07:08 -31.86538 116.07909 7995 ft 284 kts 152°
2026-05-08 07:09 -31.88345 116.08840 7992 ft 284 kts 152°
2026-05-08 07:09 -31.90153 116.09776 7996 ft 284 kts 152°
2026-05-08 07:09 -31.91965 116.10709 7996 ft 284 kts 152°
2026-05-08 07:09 -31.93775 116.11637 7996 ft 283 kts 153°
2026-05-08 07:10 -31.95589 116.12563 7995 ft 284 kts 152°
2026-05-08 07:10 -31.97379 116.13480 7995 ft 284 kts 152°
2026-05-08 07:10 -31.99219 116.14348 8000 ft 285 kts 156°
2026-05-08 07:10 -32.01088 116.15155 8003 ft 285 kts 156°
2026-05-08 07:11 -32.02952 116.15960 8004 ft 286 kts 155°
2026-05-08 07:11 -32.04819 116.16774 8005 ft 286 kts 156°
2026-05-08 07:11 -32.06725 116.17475 8012 ft 290 kts 166°
2026-05-08 07:11 -32.08749 116.17440 8013 ft 294 kts 187°
2026-05-08 07:12 -32.10735 116.16942 8011 ft 296 kts 191°
2026-05-08 07:12 -32.12739 116.16372 8014 ft 296 kts 191°
2026-05-08 07:12 -32.14751 116.15804 7907 ft 297 kts 191°
2026-05-08 07:12 -32.16762 116.15171 7488 ft 301 kts 198°
2026-05-08 07:13 -32.18547 116.13853 7045 ft 308 kts 226°
2026-05-08 07:13 -32.19601 116.11659 6585 ft 310 kts 257°
2026-05-08 07:13 -32.19829 116.09135 6150 ft 309 kts 270°
2026-05-08 07:13 -32.19846 116.06638 5805 ft 308 kts 271°
2026-05-08 07:14 -32.19844 116.04119 5433 ft 305 kts 272°
2026-05-08 07:14 -32.19589 116.01657 5089 ft 300 kts 284°
2026-05-08 07:14 -32.19091 115.99281 4813 ft 295 kts 287°
2026-05-08 07:14 -32.18579 115.96975 4594 ft 286 kts 287°
2026-05-08 07:15 -32.18078 115.94714 4368 ft 281 kts 287°
2026-05-08 07:15 -32.17560 115.92507 4086 ft 277 kts 292°
2026-05-08 07:15 -32.16485 115.90714 3813 ft 265 kts 327°
2026-05-08 07:15 -32.14825 115.89980 3531 ft 252 kts
2026-05-08 07:16 -32.13156 115.90384 3269 ft 243 kts 23°
2026-05-08 07:16 -32.11609 115.91047 3378 ft 230 kts 22°
2026-05-08 07:16 -32.10138 115.91616 3477 ft 214 kts 20°
2026-05-08 07:16 -32.08744 115.92091 3481 ft 202 kts 20°
2026-05-08 07:17 -32.07456 115.92595 3441 ft 191 kts 19°
2026-05-08 07:17 -32.06582 115.92826 3135 ft 200 kts 13°
2026-05-08 07:17 -32.04603 115.93191 1989 ft 231 kts 14°
2026-05-08 07:17 -32.03100 115.93747 1438 ft 221 kts 25°
2026-05-08 07:18 -32.01722 115.94295 1255 ft 198 kts 17°
2026-05-08 07:18 -32.00431 115.94621 996 ft 182 kts 17°
2026-05-08 07:18 -31.99637 115.94853 846 ft 173 kts 18°
2026-05-08 07:18 -31.98517 115.95190 628 ft 159 kts 19°
2026-05-08 07:19 -31.97492 115.95487 415 ft 144 kts 21°
2026-05-08 07:19 -31.96553 115.95766 252 ft 139 kts 22°
2026-05-08 07:19 -31.95615 115.96049 83 ft 137 kts 21°
2026-05-08 07:19 -31.94913 115.96258 66 ft 62 kts 12°
2026-05-08 07:20 -31.94611 115.96337 66 ft 44 kts 14°
2026-05-08 07:20 -31.94315 115.96428 68 ft 46 kts 13°
2026-05-08 07:20 -31.94182 115.96467 69 ft 4 kts 15°
2026-05-08 07:20 -31.94143 115.96497 67 ft 6 kts 52°
2026-05-08 07:21 -31.94108 115.96562 66 ft 15 kts 58°
2026-05-08 07:21 -31.94091 115.96594 65 ft 0 kts 58°
2026-05-08 07:21 -31.94087 115.96601 64 ft 5 kts 58°
2026-05-08 07:21 -31.94083 115.96609 65 ft 0 kts 58°
2026-05-08 07:22 -31.94082 115.96611 65 ft 0 kts 58°
2026-05-08 07:22 -31.94074 115.96626 65 ft 5 kts 58°
2026-05-08 07:22 -31.94050 115.96673 62 ft 9 kts 58°
2026-05-08 07:23 -31.94014 115.96741 66 ft 12 kts 58°
2026-05-08 07:23 -31.93968 115.96830 63 ft 14 kts 58°
2026-05-08 07:23 -31.93925 115.96940 64 ft 14 kts 81°
2026-05-08 07:23 -31.93938 115.97056 69 ft 15 kts 104°
2026-05-08 07:24 -31.93963 115.97181 63 ft 6 kts 103°
2026-05-08 07:24 -31.93965 115.97192 64 ft 3 kts 103°
2026-05-08 07:24 -31.93962 115.97228 65 ft 5 kts 66°
2026-05-08 07:24 -31.93937 115.97277 67 ft 9 kts 59°
2026-05-08 07:25 -31.93914 115.97350 63 ft 10 kts 83°
2026-05-08 07:25 -31.93913 115.97440 65 ft 12 kts 92°
2026-05-08 07:25 -31.93990 115.97515 67 ft 0 kts 180°